{"data":{"norad_id":63322,"epoch":"2026-09-20T07:05:55.478400Z","epoch_age_seconds":176470,"freshness":"STALE","line1":"1 63322U 25057R   26263.29578100  .00010958  00000+0  40696-3 0  9996","line2":"2 63322  42.9974  11.4864 0000635 169.7796 190.3068 15.27594497 85548","mean_motion":15.27594497,"eccentricity":6.35e-5,"inclination_deg":42.9974,"raan_deg":11.4864,"arg_perigee_deg":169.7796,"mean_anomaly_deg":190.3068,"bstar":0.00040696,"rev_number":8554,"period_min":94.265854114294,"perigee_km":482.57000458905,"apogee_km":483.44136971032,"semimajor_km":6861.1426871497,"source":"CELESTRAK","updated_at":"2026-09-21T09:00:34.970122Z"}}